Terminal Aerodrome Forecast
Issued by NWS Jackson, MS

Home | Current Version | Previous Version | Text Only | Print | Product List | Glossary On
Versions: 1 2 3 4 5 6 7 8 9 10 11 12 13
000
FTUS44 KMEG 160500
TAFTUP
TAF
KTUP 160534Z 1606/1706 00000KT P6SM FEW100 BKN200
      TEMPO 1609/1613 4SM BR
     FM161600 01006KT P6SM VCSH BKN040 BKN100
     FM161800 02005KT P6SM VCTS BKN040CB
     FM170000 02003KT P6SM BKN100=

USA.gov is the U.S. government's official web portal to all federal, state and local government web resources and services.